Time,TemperatureF,DewpointF,PressureIn,WindDirection,WindDirectionDegrees,WindSpeedMPH,WindSpeedGustMPH,Humidity,HourlyPrecipIn,Conditions,Clouds,dailyrainin,SoftwareType,DateUTC
2013-06-19 00:01:00,64.3,61.9,29.91,SE,143,0.0,0.0,92,0.00,,---,0.00,VWS V14.01,2013-06-19 04:01:00,
2013-06-19 00:06:00,64.3,61.9,29.91,SE,143,0.0,0.0,92,0.00,,---,0.00,VWS V14.01,2013-06-19 04:06:00,
2013-06-19 00:11:00,64.3,61.9,29.91,SE,142,0.0,0.0,92,0.00,,---,0.00,VWS V14.01,2013-06-19 04:11:00,
2013-06-19 00:16:00,64.3,61.9,29.91,SE,142,0.0,1.0,92,0.00,,---,0.00,VWS V14.01,2013-06-19 04:16:00,
2013-06-19 00:21:00,64.4,62.0,29.91,SE,143,0.0,1.0,92,0.00,,---,0.00,VWS V14.01,2013-06-19 04:21:00,
2013-06-19 00:26:00,64.4,62.0,29.91,SE,143,0.0,2.0,92,0.00,,---,0.00,VWS V14.01,2013-06-19 04:26:00,
2013-06-19 00:31:00,64.4,62.0,29.91,SE,142,0.0,0.0,92,0.00,,---,0.00,VWS V14.01,2013-06-19 04:31:00,
2013-06-19 00:36:00,64.4,62.0,29.91,SE,143,0.0,0.0,92,0.00,,---,0.00,VWS V14.01,2013-06-19 04:36:00,
2013-06-19 00:41:00,64.3,61.9,29.91,SE,143,0.0,0.0,92,0.00,,---,0.00,VWS V14.01,2013-06-19 04:41:00,
2013-06-19 00:46:00,64.3,61.9,29.91,SE,143,0.0,0.0,92,0.00,,---,0.00,VWS V14.01,2013-06-19 04:46:00,
2013-06-19 00:51:00,64.2,61.8,29.91,SE,143,0.0,0.0,92,0.00,,---,0.00,VWS V14.01,2013-06-19 04:51:00,
2013-06-19 00:56:00,64.1,61.7,29.91,SE,143,1.0,1.0,92,0.00,,---,0.00,VWS V14.01,2013-06-19 04:56:00,
2013-06-19 01:01:00,64.1,61.7,29.91,SE,142,0.0,0.0,92,0.00,,---,0.00,VWS V14.01,2013-06-19 05:01:00,
2013-06-19 01:06:00,64.2,61.8,29.90,SE,142,2.0,2.0,92,0.00,,---,0.00,VWS V14.01,2013-06-19 05:06:00,
2013-06-19 01:11:00,64.3,61.9,29.91,SE,142,3.0,3.0,92,0.00,,---,0.00,VWS V14.01,2013-06-19 05:11:00,
2013-06-19 01:16:00,64.3,61.9,29.90,SE,138,2.0,4.0,92,0.00,,---,0.00,VWS V14.01,2013-06-19 05:16:00,
2013-06-19 01:21:00,64.3,61.9,29.90,SE,140,2.0,4.0,92,0.00,,---,0.00,VWS V14.01,2013-06-19 05:21:00,
2013-06-19 01:26:00,64.4,62.0,29.90,SE,139,0.0,4.0,92,0.00,,---,0.00,VWS V14.01,2013-06-19 05:26:00,
2013-06-19 01:31:00,64.5,62.1,29.91,SE,138,0.0,0.0,92,0.00,,---,0.00,VWS V14.01,2013-06-19 05:31:00,
2013-06-19 01:36:00,64.6,62.2,29.90,SE,138,0.0,2.0,92,0.00,,---,0.00,VWS V14.01,2013-06-19 05:36:00,
2013-06-19 01:41:00,64.7,62.3,29.91,SE,139,0.0,2.0,92,0.00,,---,0.00,VWS V14.01,2013-06-19 05:41:00,
2013-06-19 01:46:00,64.7,62.3,29.91,SE,139,0.0,2.0,92,0.00,,---,0.00,VWS V14.01,2013-06-19 05:46:00,
2013-06-19 01:51:00,64.6,62.2,29.91,SE,139,0.0,2.0,92,0.00,,---,0.00,VWS V14.01,2013-06-19 05:51:00,
2013-06-19 01:56:00,64.5,62.1,29.91,SE,139,0.0,2.0,92,0.00,,---,0.00,VWS V14.01,2013-06-19 05:56:00,
2013-06-19 02:01:00,64.5,62.1,29.91,SE,139,0.0,0.0,92,0.00,,---,0.00,VWS V14.01,2013-06-19 06:01:00,
2013-06-19 02:06:00,64.4,62.0,29.91,SE,139,0.0,0.0,92,0.00,,---,0.00,VWS V14.01,2013-06-19 06:06:00,
2013-06-19 02:11:00,64.3,61.9,29.92,SE,139,0.0,0.0,92,0.00,,---,0.00,VWS V14.01,2013-06-19 06:11:00,
2013-06-19 02:16:00,64.2,61.8,29.92,SE,139,0.0,0.0,92,0.00,,---,0.00,VWS V14.01,2013-06-19 06:16:00,
2013-06-19 02:21:00,64.1,61.7,29.91,SE,139,0.0,1.0,92,0.00,,---,0.00,VWS V14.01,2013-06-19 06:21:00,
2013-06-19 02:26:00,64.1,61.7,29.92,SE,139,0.0,1.0,92,0.00,,---,0.00,VWS V14.01,2013-06-19 06:26:00,
2013-06-19 02:31:00,64.0,61.6,29.92,SE,139,1.0,1.0,92,0.00,,---,0.00,VWS V14.01,2013-06-19 06:31:00,
2013-06-19 02:36:00,63.9,61.5,29.92,SE,140,0.0,2.0,92,0.00,,---,0.00,VWS V14.01,2013-06-19 06:36:00,
2013-06-19 02:41:00,64.0,61.6,29.92,North,350,1.0,5.0,92,0.00,,---,0.00,VWS V14.01,2013-06-19 06:41:00,
2013-06-19 02:46:00,63.9,61.5,29.92,North,350,4.0,5.0,92,0.00,,---,0.00,VWS V14.01,2013-06-19 06:46:00,
2013-06-19 02:51:00,64.0,61.6,29.92,NNW,348,0.0,5.0,92,0.00,,---,0.00,VWS V14.01,2013-06-19 06:51:00,
2013-06-19 02:55:00,64.0,61.6,29.92,NNW,348,0.0,5.0,92,0.00,,---,0.00,VWS V14.01,2013-06-19 06:55:00,
2013-06-19 03:00:00,63.9,61.5,29.92,NNW,348,0.0,0.0,92,0.00,,---,0.00,VWS V14.01,2013-06-19 07:00:00,
2013-06-19 03:05:00,64.0,61.6,29.92,NNW,348,0.0,0.0,92,0.00,,---,0.00,VWS V14.01,2013-06-19 07:05:00,
2013-06-19 03:10:00,64.1,61.7,29.92,NNW,348,0.0,1.0,92,0.00,,---,0.00,VWS V14.01,2013-06-19 07:10:00,
2013-06-19 03:15:00,64.2,61.8,29.93,NNW,348,0.0,2.0,92,0.00,,---,0.00,VWS V14.01,2013-06-19 07:15:00,
2013-06-19 03:20:00,64.3,61.9,29.93,NNW,348,0.0,2.0,92,0.00,,---,0.00,VWS V14.01,2013-06-19 07:20:00,
2013-06-19 03:25:00,64.2,61.8,29.93,NNW,348,2.0,3.0,92,0.00,,---,0.00,VWS V14.01,2013-06-19 07:25:00,
2013-06-19 03:30:00,64.1,61.7,29.93,NNW,348,0.0,0.0,92,0.00,,---,0.00,VWS V14.01,2013-06-19 07:30:00,
2013-06-19 03:35:00,64.1,61.7,29.93,NNW,348,0.0,0.0,92,0.00,,---,0.00,VWS V14.01,2013-06-19 07:35:00,
2013-06-19 03:40:00,64.0,61.6,29.93,NNW,348,0.0,0.0,92,0.00,,---,0.00,VWS V14.01,2013-06-19 07:40:00,
2013-06-19 03:45:00,64.0,61.6,29.93,North,349,0.0,1.0,92,0.00,,---,0.00,VWS V14.01,2013-06-19 07:45:00,
2013-06-19 03:50:00,63.9,61.5,29.93,North,349,0.0,1.0,92,0.00,,---,0.00,VWS V14.01,2013-06-19 07:50:00,
2013-06-19 03:55:00,63.9,61.5,29.93,North,349,0.0,1.0,92,0.00,,---,0.00,VWS V14.01,2013-06-19 07:55:00,
2013-06-19 04:00:00,63.8,61.7,29.93,North,349,0.0,0.0,93,0.00,,---,0.00,VWS V14.01,2013-06-19 08:00:00,
2013-06-19 04:05:00,63.7,61.3,29.93,North,349,0.0,0.0,92,0.00,,---,0.00,VWS V14.01,2013-06-19 08:05:00,
2013-06-19 04:10:00,63.6,61.2,29.93,North,349,0.0,0.0,92,0.00,,---,0.00,VWS V14.01,2013-06-19 08:10:00,
2013-06-19 04:15:00,63.6,61.2,29.94,North,349,0.0,0.0,92,0.00,,---,0.00,VWS V14.01,2013-06-19 08:15:00,
2013-06-19 04:20:00,63.7,61.3,29.94,NNW,348,0.0,2.0,92,0.00,,---,0.00,VWS V14.01,2013-06-19 08:20:00,
2013-06-19 04:25:00,63.6,61.2,29.93,NNW,348,0.0,2.0,92,0.00,,---,0.00,VWS V14.01,2013-06-19 08:25:00,
2013-06-19 04:30:00,63.7,61.3,29.93,NNW,348,0.0,0.0,92,0.00,,---,0.00,VWS V14.01,2013-06-19 08:30:00,
2013-06-19 04:35:00,63.7,61.6,29.93,SW,230,1.0,2.0,93,0.00,,---,0.00,VWS V14.01,2013-06-19 08:35:00,
2013-06-19 04:40:00,63.7,61.3,29.93,SW,231,0.0,2.0,92,0.00,,---,0.00,VWS V14.01,2013-06-19 08:40:00,
2013-06-19 04:45:00,63.7,61.3,29.93,SW,230,0.0,2.0,92,0.00,,---,0.00,VWS V14.01,2013-06-19 08:45:00,
2013-06-19 04:50:00,63.7,61.3,29.93,SW,231,0.0,2.0,92,0.00,,---,0.00,VWS V14.01,2013-06-19 08:50:00,
2013-06-19 04:55:00,63.7,61.3,29.94,SW,230,0.0,2.0,92,0.00,,---,0.00,VWS V14.01,2013-06-19 08:55:00,
2013-06-19 05:00:00,63.7,61.3,29.94,SW,234,1.0,3.0,92,0.00,,---,0.00,VWS V14.01,2013-06-19 09:00:00,
2013-06-19 05:05:00,63.7,61.3,29.93,SW,234,0.0,1.0,92,0.00,,---,0.00,VWS V14.01,2013-06-19 09:05:00,
2013-06-19 05:10:00,63.7,61.3,29.93,SW,234,0.0,1.0,92,0.00,,---,0.00,VWS V14.01,2013-06-19 09:10:00,
2013-06-19 05:15:00,63.7,61.3,29.93,SW,234,0.0,1.0,92,0.00,,---,0.00,VWS V14.01,2013-06-19 09:15:00,
2013-06-19 05:20:00,63.7,61.6,29.94,SW,234,0.0,1.0,93,0.00,,---,0.00,VWS V14.01,2013-06-19 09:20:00,
2013-06-19 05:25:00,63.8,61.7,29.94,SW,234,0.0,1.0,93,0.00,,---,0.00,VWS V14.01,2013-06-19 09:25:00,
2013-06-19 05:30:00,63.8,61.7,29.94,SW,234,0.0,1.0,93,0.00,,---,0.00,VWS V14.01,2013-06-19 09:30:00,
2013-06-19 05:35:00,63.9,61.8,29.94,SW,234,0.0,0.0,93,0.00,,---,0.00,VWS V14.01,2013-06-19 09:35:00,
2013-06-19 05:40:00,63.9,61.8,29.94,SW,234,0.0,0.0,93,0.00,,---,0.00,VWS V14.01,2013-06-19 09:40:00,
2013-06-19 05:45:00,63.9,61.8,29.94,SW,234,0.0,0.0,93,0.00,,---,0.00,VWS V14.01,2013-06-19 09:45:00,
2013-06-19 05:50:00,64.0,61.6,29.94,SW,234,0.0,0.0,92,0.00,,---,0.00,VWS V14.01,2013-06-19 09:50:00,
2013-06-19 05:55:00,64.0,61.6,29.95,SW,234,0.0,0.0,92,0.00,,---,0.00,VWS V14.01,2013-06-19 09:55:00,
2013-06-19 06:00:00,64.0,61.6,29.95,SW,234,0.0,0.0,92,0.00,,---,0.00,VWS V14.01,2013-06-19 10:00:00,
2013-06-19 06:05:00,64.0,61.6,29.95,SW,234,0.0,0.0,92,0.00,,---,0.00,VWS V14.01,2013-06-19 10:05:00,
2013-06-19 06:10:00,64.1,61.7,29.96,SW,234,0.0,1.0,92,0.00,,---,0.00,VWS V14.01,2013-06-19 10:10:00,
2013-06-19 06:15:00,64.1,61.7,29.96,SW,235,3.0,3.0,92,0.00,,---,0.00,VWS V14.01,2013-06-19 10:15:00,
2013-06-19 06:20:00,64.0,61.6,29.96,WSW,240,0.0,3.0,92,0.00,,---,0.00,VWS V14.01,2013-06-19 10:20:00,
2013-06-19 06:25:00,64.0,61.6,29.96,WSW,240,0.0,3.0,92,0.00,,---,0.00,VWS V14.01,2013-06-19 10:25:00,
2013-06-19 06:30:00,63.9,61.8,29.97,NNE,22,2.0,5.0,93,0.00,,---,0.00,VWS V14.01,2013-06-19 10:30:00,
2013-06-19 06:35:00,63.8,61.7,29.97,NNW,328,3.0,5.0,93,0.00,,---,0.00,VWS V14.01,2013-06-19 10:35:00,
2013-06-19 06:40:00,63.8,61.7,29.97,North,5,3.0,6.0,93,0.00,,---,0.00,VWS V14.01,2013-06-19 10:40:00,
2013-06-19 06:45:00,63.8,61.7,29.98,NNE,17,4.0,6.0,93,0.00,,---,0.00,VWS V14.01,2013-06-19 10:45:00,
2013-06-19 06:50:00,63.8,61.7,29.98,North,360,4.0,6.0,93,0.00,,---,0.00,VWS V14.01,2013-06-19 10:50:00,
2013-06-19 06:55:00,63.8,61.7,29.98,NNE,28,3.0,6.0,93,0.00,,---,0.00,VWS V14.01,2013-06-19 10:55:00,
2013-06-19 07:00:00,63.7,61.3,29.98,NNE,31,0.0,6.0,92,0.00,,---,0.00,VWS V14.01,2013-06-19 11:00:00,
2013-06-19 07:05:00,63.7,61.3,29.98,North,11,2.0,4.0,92,0.00,,---,0.00,VWS V14.01,2013-06-19 11:05:00,
2013-06-19 07:10:00,63.8,61.7,29.98,North,355,5.0,6.0,93,0.00,,---,0.00,VWS V14.01,2013-06-19 11:10:00,
2013-06-19 07:15:00,63.8,61.7,29.98,NNE,14,3.0,6.0,93,0.00,,---,0.00,VWS V14.01,2013-06-19 11:15:00,
2013-06-19 07:20:00,63.8,61.4,29.98,NNE,25,3.0,6.0,92,0.00,,---,0.00,VWS V14.01,2013-06-19 11:20:00,
2013-06-19 07:25:00,63.8,61.4,29.98,NNE,18,2.0,6.0,92,0.00,,---,0.00,VWS V14.01,2013-06-19 11:25:00,
2013-06-19 07:30:00,63.8,61.4,29.98,North,350,4.0,6.0,92,0.00,,---,0.00,VWS V14.01,2013-06-19 11:30:00,
2013-06-19 07:35:00,63.8,61.4,29.99,NNE,32,2.0,5.0,92,0.00,,---,0.00,VWS V14.01,2013-06-19 11:35:00,
2013-06-19 07:40:00,63.7,61.3,29.99,North,355,0.0,8.0,92,0.00,,---,0.00,VWS V14.01,2013-06-19 11:40:00,
2013-06-19 07:45:00,63.7,61.3,29.99,North,5,2.0,8.0,92,0.00,,---,0.00,VWS V14.01,2013-06-19 11:45:00,
2013-06-19 07:50:00,63.8,61.4,29.99,North,360,2.0,8.0,92,0.00,,---,0.00,VWS V14.01,2013-06-19 11:50:00,
2013-06-19 07:55:00,63.8,61.4,30.00,NNW,346,2.0,8.0,92,0.00,,---,0.00,VWS V14.01,2013-06-19 11:55:00,
2013-06-19 08:00:00,63.8,61.4,30.00,North,360,3.0,8.0,92,0.00,,---,0.00,VWS V14.01,2013-06-19 12:00:00,
2013-06-19 08:05:00,63.8,61.4,30.01,North,5,1.0,7.0,92,0.00,,---,0.00,VWS V14.01,2013-06-19 12:05:00,
2013-06-19 08:10:00,63.8,61.1,30.01,North,10,2.0,7.0,91,0.00,,---,0.00,VWS V14.01,2013-06-19 12:10:00,
2013-06-19 08:15:00,63.9,61.2,30.02,NNE,13,3.0,7.0,91,0.00,,---,0.00,VWS V14.01,2013-06-19 12:15:00,
2013-06-19 08:20:00,63.9,61.2,30.02,ENE,57,3.0,7.0,91,0.00,,---,0.00,VWS V14.01,2013-06-19 12:20:00,
2013-06-19 08:25:00,63.9,61.2,30.02,NE,34,6.0,7.0,91,0.00,,---,0.00,VWS V14.01,2013-06-19 12:25:00,
2013-06-19 08:30:00,64.0,61.0,30.02,NNE,26,3.0,7.0,90,0.00,,---,0.00,VWS V14.01,2013-06-19 12:30:00,
2013-06-19 08:35:00,64.2,61.2,30.03,NE,51,2.0,5.0,90,0.00,,---,0.00,VWS V14.01,2013-06-19 12:35:00,
2013-06-19 08:40:00,64.4,61.4,30.03,NE,45,0.0,5.0,90,0.00,,---,0.00,VWS V14.01,2013-06-19 12:40:00,
2013-06-19 08:45:00,64.7,61.7,30.03,NNE,21,1.0,5.0,90,0.00,,---,0.00,VWS V14.01,2013-06-19 12:45:00,
2013-06-19 08:50:00,64.9,61.6,30.03,NE,37,3.0,6.0,89,0.00,,---,0.00,VWS V14.01,2013-06-19 12:50:00,
2013-06-19 08:55:00,65.0,61.4,30.03,NNE,33,0.0,6.0,88,0.00,,---,0.00,VWS V14.01,2013-06-19 12:55:00,
2013-06-19 09:00:00,65.2,61.6,30.04,North,5,0.0,6.0,88,0.00,,---,0.00,VWS V14.01,2013-06-19 13:00:00,
2013-06-19 09:05:00,65.4,61.8,30.04,NE,43,4.0,6.0,88,0.00,,---,0.00,VWS V14.01,2013-06-19 13:05:00,
2013-06-19 09:10:00,65.6,61.6,30.04,NNE,18,2.0,6.0,87,0.00,,---,0.00,VWS V14.01,2013-06-19 13:10:00,
2013-06-19 09:15:00,65.6,61.6,30.05,NNW,346,5.0,6.0,87,0.00,,---,0.00,VWS V14.01,2013-06-19 13:15:00,
2013-06-19 09:20:00,65.5,61.5,30.05,NNE,21,5.0,9.0,87,0.00,,---,0.00,VWS V14.01,2013-06-19 13:20:00,
2013-06-19 09:25:00,65.5,61.5,30.05,East,99,0.0,9.0,87,0.00,,---,0.00,VWS V14.01,2013-06-19 13:25:00,
2013-06-19 09:29:00,65.6,61.6,30.05,ENE,63,2.0,9.0,87,0.00,,---,0.00,VWS V14.01,2013-06-19 13:29:00,
2013-06-19 09:34:00,65.8,61.8,30.05,NNE,21,2.0,7.0,87,0.00,,---,0.00,VWS V14.01,2013-06-19 13:34:00,
2013-06-19 09:39:00,65.8,61.5,30.06,North,5,7.0,7.0,86,0.00,,---,0.00,VWS V14.01,2013-06-19 13:39:00,
2013-06-19 09:44:00,65.8,61.5,30.06,NE,34,5.0,7.0,86,0.00,,---,0.00,VWS V14.01,2013-06-19 13:44:00,
2013-06-19 09:49:00,65.8,61.5,30.06,NNE,26,2.0,7.0,86,0.00,,---,0.00,VWS V14.01,2013-06-19 13:49:00,
2013-06-19 09:54:00,65.8,61.5,30.06,North,5,4.0,9.0,86,0.00,,---,0.00,VWS V14.01,2013-06-19 13:54:00,
2013-06-19 09:59:00,65.9,61.3,30.06,NNE,32,4.0,10.0,85,0.00,,---,0.00,VWS V14.01,2013-06-19 13:59:00,
2013-06-19 10:04:00,66.0,61.0,30.06,NNW,346,5.0,9.0,84,0.00,,---,0.00,VWS V14.01,2013-06-19 14:04:00,
2013-06-19 10:09:00,66.0,61.0,30.06,North,349,4.0,9.0,84,0.00,,---,0.00,VWS V14.01,2013-06-19 14:09:00,
2013-06-19 10:14:00,66.0,60.7,30.06,North,5,3.0,10.0,83,0.00,,---,0.00,VWS V14.01,2013-06-19 14:14:00,
2013-06-19 10:19:00,66.0,60.7,30.06,NNE,17,5.0,10.0,83,0.00,,---,0.00,VWS V14.01,2013-06-19 14:19:00,
2013-06-19 10:24:00,66.1,60.8,30.06,North,349,3.0,10.0,83,0.00,,---,0.00,VWS V14.01,2013-06-19 14:24:00,
2013-06-19 10:29:00,66.2,60.5,30.06,North,355,3.0,10.0,82,0.00,,---,0.00,VWS V14.01,2013-06-19 14:29:00,
2013-06-19 10:34:00,66.4,61.1,30.07,NNE,13,5.0,6.0,83,0.00,,---,0.00,VWS V14.01,2013-06-19 14:34:00,
2013-06-19 10:39:00,66.5,60.8,30.06,NNE,18,4.0,6.0,82,0.00,,---,0.00,VWS V14.01,2013-06-19 14:39:00,
2013-06-19 10:44:00,66.6,60.9,30.07,NNE,22,7.0,7.0,82,0.00,,---,0.00,VWS V14.01,2013-06-19 14:44:00,
2013-06-19 10:49:00,66.6,60.9,30.07,NNE,19,3.0,7.0,82,0.00,,---,0.00,VWS V14.01,2013-06-19 14:49:00,
2013-06-19 10:54:00,66.8,61.1,30.07,NNE,13,3.0,7.0,82,0.00,,---,0.00,VWS V14.01,2013-06-19 14:54:00,
2013-06-19 10:59:00,67.1,61.1,30.07,NNE,13,3.0,7.0,81,0.00,,---,0.00,VWS V14.01,2013-06-19 14:59:00,
2013-06-19 11:04:00,67.2,61.2,30.07,NNE,15,4.0,9.0,81,0.00,,---,0.00,VWS V14.01,2013-06-19 15:04:00,
2013-06-19 11:09:00,67.3,60.9,30.07,North,350,6.0,9.0,80,0.00,,---,0.00,VWS V14.01,2013-06-19 15:09:00,
2013-06-19 11:14:00,67.2,61.2,30.07,North,360,3.0,9.0,81,0.00,,---,0.00,VWS V14.01,2013-06-19 15:14:00,
2013-06-19 11:19:00,67.2,61.2,30.07,North,355,3.0,9.0,81,0.00,,---,0.00,VWS V14.01,2013-06-19 15:19:00,
2013-06-19 11:24:00,67.4,61.7,30.08,NNE,16,8.0,9.0,82,0.00,,---,0.00,VWS V14.01,2013-06-19 15:24:00,
2013-06-19 11:29:00,67.7,61.3,30.07,NNE,19,7.0,9.0,80,0.00,,---,0.00,VWS V14.01,2013-06-19 15:29:00,
2013-06-19 11:34:00,67.9,61.5,30.08,NNW,329,5.0,8.0,80,0.00,,---,0.00,VWS V14.01,2013-06-19 15:34:00,
2013-06-19 11:39:00,68.1,61.7,30.08,North,5,1.0,8.0,80,0.00,,---,0.00,VWS V14.01,2013-06-19 15:39:00,
2013-06-19 11:44:00,68.2,61.8,30.08,NE,38,3.0,8.0,80,0.00,,---,0.00,VWS V14.01,2013-06-19 15:44:00,
2013-06-19 11:49:00,68.2,61.5,30.08,North,5,5.0,8.0,79,0.00,,---,0.00,VWS V14.01,2013-06-19 15:49:00,
2013-06-19 11:54:00,68.1,61.3,30.08,NE,39,2.0,8.0,79,0.00,,---,0.00,VWS V14.01,2013-06-19 15:54:00,
2013-06-19 11:59:00,68.2,61.8,30.08,East,84,3.0,8.0,80,0.00,,---,0.00,VWS V14.01,2013-06-19 15:59:00,
2013-06-19 12:04:00,68.8,62.0,30.08,NE,34,5.0,6.0,79,0.00,,---,0.00,VWS V14.01,2013-06-19 16:04:00,
2013-06-19 12:09:00,69.0,61.9,30.08,NNW,348,5.0,6.0,78,0.00,,---,0.00,VWS V14.01,2013-06-19 16:09:00,
2013-06-19 12:14:00,69.2,62.1,30.08,NE,46,2.0,7.0,78,0.00,,---,0.00,VWS V14.01,2013-06-19 16:14:00,
2013-06-19 12:19:00,69.6,62.1,30.08,North,5,4.0,8.0,77,0.00,,---,0.00,VWS V14.01,2013-06-19 16:19:00,
2013-06-19 12:24:00,69.7,62.2,30.08,North,360,6.0,9.0,77,0.00,,---,0.00,VWS V14.01,2013-06-19 16:24:00,
2013-06-19 12:29:00,70.1,62.2,30.08,NE,39,2.0,10.0,76,0.00,,---,0.00,VWS V14.01,2013-06-19 16:29:00,
2013-06-19 12:34:00,70.6,62.3,30.08,ESE,118,1.0,9.0,75,0.00,,---,0.00,VWS V14.01,2013-06-19 16:34:00,
2013-06-19 12:39:00,71.0,63.1,30.08,NNW,346,5.0,9.0,76,0.00,,---,0.00,VWS V14.01,2013-06-19 16:39:00,
2013-06-19 12:44:00,71.2,62.5,30.08,North,5,3.0,9.0,74,0.00,,---,0.00,VWS V14.01,2013-06-19 16:44:00,
2013-06-19 12:49:00,71.0,62.3,30.08,East,93,4.0,9.0,74,0.00,,---,0.00,VWS V14.01,2013-06-19 16:49:00,
2013-06-19 12:54:00,71.8,62.7,30.08,NE,43,3.0,11.0,73,0.00,,---,0.00,VWS V14.01,2013-06-19 16:54:00,
2013-06-19 12:59:00,71.9,62.8,30.07,NE,39,5.0,11.0,73,0.00,,---,0.00,VWS V14.01,2013-06-19 16:59:00,
2013-06-19 13:04:00,71.7,62.6,30.07,North,360,1.0,9.0,73,0.00,,---,0.00,VWS V14.01,2013-06-19 17:04:00,
2013-06-19 13:09:00,72.1,62.6,30.07,NE,37,7.0,9.0,72,0.00,,---,0.00,VWS V14.01,2013-06-19 17:09:00,
2013-06-19 13:14:00,71.9,61.6,30.07,NNE,26,2.0,12.0,70,0.00,,---,0.00,VWS V14.01,2013-06-19 17:14:00,
2013-06-19 13:19:00,72.1,62.6,30.07,NNE,16,4.0,12.0,72,0.00,,---,0.00,VWS V14.01,2013-06-19 17:19:00,
2013-06-19 13:24:00,72.2,62.3,30.07,NNE,17,6.0,12.0,71,0.00,,---,0.00,VWS V14.01,2013-06-19 17:24:00,
2013-06-19 13:29:00,72.0,62.5,30.07,North,355,10.0,12.0,72,0.00,,---,0.00,VWS V14.01,2013-06-19 17:29:00,
2013-06-19 13:34:00,72.0,62.5,30.07,North,9,5.0,8.0,72,0.00,,---,0.00,VWS V14.01,2013-06-19 17:34:00,
2013-06-19 13:39:00,71.9,62.4,30.07,NE,39,7.0,11.0,72,0.00,,---,0.00,VWS V14.01,2013-06-19 17:39:00,
2013-06-19 13:44:00,72.4,63.7,30.07,NNE,26,8.0,11.0,74,0.00,,---,0.00,VWS V14.01,2013-06-19 17:44:00,
2013-06-19 13:49:00,72.8,63.7,30.07,North,5,5.0,11.0,73,0.00,,---,0.00,VWS V14.01,2013-06-19 17:49:00,
2013-06-19 13:54:00,73.2,63.2,30.07,NNW,341,7.0,11.0,71,0.00,,---,0.00,VWS V14.01,2013-06-19 17:54:00,
2013-06-19 13:59:00,72.8,62.5,30.07,NNW,336,5.0,11.0,70,0.00,,---,0.00,VWS V14.01,2013-06-19 17:59:00,
2013-06-19 14:04:00,72.7,63.2,30.07,North,360,5.0,11.0,72,0.00,,---,0.00,VWS V14.01,2013-06-19 18:04:00,
2013-06-19 14:09:00,72.7,62.8,30.07,NNE,24,5.0,11.0,71,0.00,,---,0.00,VWS V14.01,2013-06-19 18:09:00,
2013-06-19 14:14:00,73.2,62.8,30.07,NNE,25,5.0,11.0,70,0.00,,---,0.00,VWS V14.01,2013-06-19 18:14:00,
2013-06-19 14:19:00,73.3,62.9,30.07,NE,46,8.0,11.0,70,0.00,,---,0.00,VWS V14.01,2013-06-19 18:19:00,
2013-06-19 14:24:00,73.3,62.9,30.07,North,5,5.0,13.0,70,0.00,,---,0.00,VWS V14.01,2013-06-19 18:24:00,
2013-06-19 14:29:00,73.7,64.1,30.07,NNE,25,2.0,13.0,72,0.00,,---,0.00,VWS V14.01,2013-06-19 18:29:00,
2013-06-19 14:34:00,74.2,63.8,30.07,NE,45,7.0,11.0,70,0.00,,---,0.00,VWS V14.01,2013-06-19 18:34:00,
2013-06-19 14:39:00,74.3,63.1,30.07,NNE,18,3.0,12.0,68,0.00,,---,0.00,VWS V14.01,2013-06-19 18:39:00,
2013-06-19 14:44:00,74.2,63.4,30.07,North,11,3.0,12.0,69,0.00,,---,0.00,VWS V14.01,2013-06-19 18:44:00,
2013-06-19 14:49:00,74.2,62.5,30.07,North,5,4.0,12.0,67,0.00,,---,0.00,VWS V14.01,2013-06-19 18:49:00,
2013-06-19 14:54:00,74.1,62.5,30.07,NNE,26,5.0,12.0,67,0.00,,---,0.00,VWS V14.01,2013-06-19 18:54:00,
2013-06-19 14:59:00,74.1,63.3,30.06,NNW,334,3.0,12.0,69,0.00,,---,0.00,VWS V14.01,2013-06-19 18:59:00,
2013-06-19 15:04:00,74.3,62.6,30.07,NNE,18,6.0,10.0,67,0.00,,---,0.00,VWS V14.01,2013-06-19 19:04:00,
2013-06-19 15:09:00,74.3,63.1,30.07,NW,317,4.0,10.0,68,0.00,,---,0.00,VWS V14.01,2013-06-19 19:09:00,
2013-06-19 15:14:00,74.5,63.7,30.06,North,355,4.0,10.0,69,0.00,,---,0.00,VWS V14.01,2013-06-19 19:14:00,
2013-06-19 15:19:00,74.4,62.7,30.06,North,355,3.0,13.0,67,0.00,,---,0.00,VWS V14.01,2013-06-19 19:19:00,
2013-06-19 15:24:00,75.2,63.5,30.06,NNE,15,1.0,13.0,67,0.00,,---,0.00,VWS V14.01,2013-06-19 19:24:00,
2013-06-19 15:29:00,76.0,64.3,30.06,NE,53,4.0,13.0,67,0.00,,---,0.00,VWS V14.01,2013-06-19 19:29:00,
2013-06-19 15:34:00,76.1,63.9,30.06,East,88,1.0,4.0,66,0.00,,---,0.00,VWS V14.01,2013-06-19 19:34:00,
2013-06-19 15:39:00,75.1,63.8,30.06,SE,134,2.0,9.0,68,0.00,,---,0.00,VWS V14.01,2013-06-19 19:39:00,
2013-06-19 15:44:00,75.3,64.0,30.06,ESE,107,2.0,9.0,68,0.00,,---,0.00,VWS V14.01,2013-06-19 19:44:00,
2013-06-19 15:49:00,74.9,63.2,30.06,East,94,3.0,9.0,67,0.00,,---,0.00,VWS V14.01,2013-06-19 19:49:00,
2013-06-19 15:54:00,75.3,63.6,30.06,NE,45,0.0,9.0,67,0.00,,---,0.00,VWS V14.01,2013-06-19 19:54:00,
2013-06-19 15:59:00,75.9,62.9,30.06,East,86,1.0,9.0,64,0.00,,---,0.00,VWS V14.01,2013-06-19 19:59:00,
2013-06-19 16:04:00,76.0,63.0,30.06,ESE,105,0.0,6.0,64,0.00,,---,0.00,VWS V14.01,2013-06-19 20:04:00,
2013-06-19 16:09:00,76.5,63.9,30.06,East,92,4.0,6.0,65,0.00,,---,0.00,VWS V14.01,2013-06-19 20:09:00,
2013-06-19 16:14:00,76.6,63.5,30.05,ENE,78,2.0,6.0,64,0.00,,---,0.00,VWS V14.01,2013-06-19 20:14:00,
2013-06-19 16:19:00,76.3,63.2,30.05,ESE,120,2.0,6.0,64,0.00,,---,0.00,VWS V14.01,2013-06-19 20:19:00,
2013-06-19 16:24:00,76.0,63.4,30.05,SE,134,2.0,6.0,65,0.00,,---,0.00,VWS V14.01,2013-06-19 20:24:00,
2013-06-19 16:29:00,76.4,62.9,30.05,East,101,0.0,6.0,63,0.00,,---,0.00,VWS V14.01,2013-06-19 20:29:00,
2013-06-19 16:34:00,77.1,63.1,30.05,NW,313,2.0,3.0,62,0.00,,---,0.00,VWS V14.01,2013-06-19 20:34:00,
2013-06-19 16:39:00,78.3,63.3,30.05,NNE,15,2.0,4.0,60,0.00,,---,0.00,VWS V14.01,2013-06-19 20:39:00,
2013-06-19 16:44:00,78.7,63.2,30.05,NE,45,1.0,4.0,59,0.00,,---,0.00,VWS V14.01,2013-06-19 20:44:00,
2013-06-19 16:49:00,78.7,63.2,30.05,ENE,69,2.0,9.0,59,0.00,,---,0.00,VWS V14.01,2013-06-19 20:49:00,
2013-06-19 16:54:00,77.9,62.4,30.05,East,96,6.0,9.0,59,0.00,,---,0.00,VWS V14.01,2013-06-19 20:54:00,
2013-06-19 16:59:00,77.0,62.5,30.05,East,92,2.0,9.0,61,0.00,,---,0.00,VWS V14.01,2013-06-19 20:59:00,
2013-06-19 17:04:00,77.0,63.0,30.05,NNE,26,0.0,5.0,62,0.00,,---,0.00,VWS V14.01,2013-06-19 21:04:00,
2013-06-19 17:09:00,77.8,62.8,30.05,NNE,26,1.0,5.0,60,0.00,,---,0.00,VWS V14.01,2013-06-19 21:09:00,
2013-06-19 17:14:00,78.1,63.1,30.05,SE,127,2.0,7.0,60,0.00,,---,0.00,VWS V14.01,2013-06-19 21:14:00,
2013-06-19 17:19:00,76.9,62.9,30.05,ESE,106,5.0,7.0,62,0.00,,---,0.00,VWS V14.01,2013-06-19 21:19:00,
2013-06-19 17:23:00,76.2,62.7,30.05,NNE,26,0.0,7.0,63,0.00,,---,0.00,VWS V14.01,2013-06-19 21:23:00,
2013-06-19 17:28:00,76.0,62.0,30.05,East,101,1.0,7.0,62,0.00,,---,0.00,VWS V14.01,2013-06-19 21:28:00,
2013-06-19 17:33:00,75.4,61.9,30.05,East,84,4.0,7.0,63,0.00,,---,0.00,VWS V14.01,2013-06-19 21:33:00,
2013-06-19 17:38:00,74.7,62.6,30.05,East,90,0.0,7.0,66,0.00,,---,0.00,VWS V14.01,2013-06-19 21:38:00,
2013-06-19 17:43:00,75.0,62.5,30.05,East,79,0.0,7.0,65,0.00,,---,0.00,VWS V14.01,2013-06-19 21:43:00,
2013-06-19 17:48:00,75.0,62.0,30.05,East,80,1.0,7.0,64,0.00,,---,0.00,VWS V14.01,2013-06-19 21:48:00,
2013-06-19 17:53:00,75.2,62.2,30.05,ESE,114,1.0,7.0,64,0.00,,---,0.00,VWS V14.01,2013-06-19 21:53:00,
2013-06-19 17:58:00,75.3,62.3,30.05,SE,126,0.0,7.0,64,0.00,,---,0.00,VWS V14.01,2013-06-19 21:58:00,
2013-06-19 18:03:00,76.1,62.6,30.05,ESE,104,3.0,4.0,63,0.00,,---,0.00,VWS V14.01,2013-06-19 22:03:00,
2013-06-19 18:08:00,76.3,62.8,30.05,NE,34,0.0,4.0,63,0.00,,---,0.00,VWS V14.01,2013-06-19 22:08:00,
2013-06-19 18:13:00,76.5,63.0,30.05,NE,38,0.0,4.0,63,0.00,,---,0.00,VWS V14.01,2013-06-19 22:13:00,
2013-06-19 18:18:00,76.2,63.1,30.06,East,82,0.0,4.0,64,0.00,,---,0.00,VWS V14.01,2013-06-19 22:18:00,
2013-06-19 18:23:00,75.8,63.6,30.06,WSW,244,1.0,4.0,66,0.00,,---,0.00,VWS V14.01,2013-06-19 22:23:00,
2013-06-19 18:28:00,75.2,63.5,30.06,East,89,1.0,5.0,67,0.00,,---,0.00,VWS V14.01,2013-06-19 22:28:00,
2013-06-19 18:33:00,74.1,63.3,30.06,ESE,105,1.0,6.0,69,0.00,,---,0.00,VWS V14.01,2013-06-19 22:33:00,
2013-06-19 18:38:00,73.5,63.5,30.06,East,91,4.0,6.0,71,0.00,,---,0.00,VWS V14.01,2013-06-19 22:38:00,
2013-06-19 18:43:00,73.2,63.2,30.06,East,95,6.0,6.0,71,0.00,,---,0.00,VWS V14.01,2013-06-19 22:43:00,
2013-06-19 18:48:00,73.2,63.2,30.06,ENE,78,2.0,6.0,71,0.00,,---,0.00,VWS V14.01,2013-06-19 22:48:00,
2013-06-19 18:53:00,73.3,63.3,30.06,East,98,3.0,6.0,71,0.00,,---,0.00,VWS V14.01,2013-06-19 22:53:00,
2013-06-19 18:58:00,73.6,63.2,30.06,ESE,108,2.0,6.0,70,0.00,,---,0.00,VWS V14.01,2013-06-19 22:58:00,
2013-06-19 19:03:00,73.3,62.9,30.07,ESE,113,0.0,7.0,70,0.00,,---,0.00,VWS V14.01,2013-06-19 23:03:00,
2013-06-19 19:08:00,73.1,63.2,30.07,ESE,109,0.0,7.0,71,0.00,,---,0.00,VWS V14.01,2013-06-19 23:08:00,
2013-06-19 19:13:00,73.5,63.9,30.07,ESE,107,4.0,7.0,72,0.00,,---,0.00,VWS V14.01,2013-06-19 23:13:00,
2013-06-19 19:18:00,73.4,63.4,30.07,East,101,2.0,7.0,71,0.00,,---,0.00,VWS V14.01,2013-06-19 23:18:00,
2013-06-19 19:23:00,73.4,63.8,30.07,NNE,24,0.0,7.0,72,0.00,,---,0.00,VWS V14.01,2013-06-19 23:23:00,
2013-06-19 19:28:00,73.6,64.0,30.07,NNE,30,0.0,7.0,72,0.00,,---,0.00,VWS V14.01,2013-06-19 23:28:00,
2013-06-19 19:33:00,73.7,64.1,30.07,NE,51,0.0,3.0,72,0.00,,---,0.00,VWS V14.01,2013-06-19 23:33:00,
2013-06-19 19:38:00,73.4,64.2,30.08,ENE,59,0.0,3.0,73,0.00,,---,0.00,VWS V14.01,2013-06-19 23:38:00,
2013-06-19 19:43:00,73.1,63.9,30.08,ENE,68,3.0,3.0,73,0.00,,---,0.00,VWS V14.01,2013-06-19 23:43:00,
2013-06-19 19:48:00,72.8,63.7,30.08,East,90,2.0,3.0,73,0.00,,---,0.00,VWS V14.01,2013-06-19 23:48:00,
2013-06-19 19:53:00,72.6,64.2,30.08,East,88,1.0,3.0,75,0.00,,---,0.00,VWS V14.01,2013-06-19 23:53:00,
2013-06-19 19:58:00,72.3,63.9,30.08,East,86,0.0,3.0,75,0.00,,---,0.00,VWS V14.01,2013-06-19 23:58:00,
2013-06-19 20:03:00,72.0,64.0,30.08,ENE,73,1.0,2.0,76,0.00,,---,0.00,VWS V14.01,2013-06-20 00:03:00,
2013-06-19 20:08:00,71.9,63.9,30.09,ENE,72,0.0,3.0,76,0.00,,---,0.00,VWS V14.01,2013-06-20 00:08:00,
2013-06-19 20:13:00,71.6,63.6,30.09,ENE,74,0.0,3.0,76,0.00,,---,0.00,VWS V14.01,2013-06-20 00:13:00,
2013-06-19 20:18:00,71.2,63.6,30.09,East,79,0.0,3.0,77,0.00,,---,0.00,VWS V14.01,2013-06-20 00:18:00,
2013-06-19 20:23:00,70.7,63.5,30.09,East,80,0.0,3.0,78,0.00,,---,0.00,VWS V14.01,2013-06-20 00:23:00,
2013-06-19 20:28:00,70.4,63.6,30.09,East,80,1.0,3.0,79,0.00,,---,0.00,VWS V14.01,2013-06-20 00:28:00,
2013-06-19 20:33:00,70.0,63.5,30.09,East,80,0.0,0.0,80,0.00,,---,0.00,VWS V14.01,2013-06-20 00:33:00,
2013-06-19 20:38:00,69.7,63.6,30.09,East,80,0.0,0.0,81,0.00,,---,0.00,VWS V14.01,2013-06-20 00:38:00,
2013-06-19 20:43:00,69.5,63.4,30.10,East,80,0.0,0.0,81,0.00,,---,0.00,VWS V14.01,2013-06-20 00:43:00,
2013-06-19 20:48:00,69.4,63.3,30.10,East,80,0.0,0.0,81,0.00,,---,0.00,VWS V14.01,2013-06-20 00:48:00,
2013-06-19 20:53:00,69.2,63.5,30.10,East,80,0.0,0.0,82,0.00,,---,0.00,VWS V14.01,2013-06-20 00:53:00,
2013-06-19 20:58:00,68.9,63.5,30.11,East,80,0.0,0.0,83,0.00,,---,0.00,VWS V14.01,2013-06-20 00:58:00,
2013-06-19 21:03:00,68.5,63.1,30.11,East,80,0.0,0.0,83,0.00,,---,0.00,VWS V14.01,2013-06-20 01:03:00,
2013-06-19 21:08:00,68.2,63.2,30.11,East,80,0.0,1.0,84,0.00,,---,0.00,VWS V14.01,2013-06-20 01:08:00,
2013-06-19 21:13:00,67.9,63.2,30.10,East,82,3.0,3.0,85,0.00,,---,0.00,VWS V14.01,2013-06-20 01:13:00,
2013-06-19 21:18:00,67.6,62.9,30.10,East,82,0.0,3.0,85,0.00,,---,0.00,VWS V14.01,2013-06-20 01:18:00,
2013-06-19 21:23:00,67.5,62.8,30.10,SE,141,0.0,3.0,85,0.00,,---,0.00,VWS V14.01,2013-06-20 01:23:00,
2013-06-19 21:28:00,67.4,62.4,30.10,ESE,104,0.0,4.0,84,0.00,,---,0.00,VWS V14.01,2013-06-20 01:28:00,
2013-06-19 21:33:00,67.3,62.6,30.11,ESE,103,0.0,2.0,85,0.00,,---,0.00,VWS V14.01,2013-06-20 01:33:00,
2013-06-19 21:38:00,67.2,62.5,30.11,ESE,104,0.0,2.0,85,0.00,,---,0.00,VWS V14.01,2013-06-20 01:38:00,
2013-06-19 21:43:00,67.0,62.3,30.11,ESE,104,0.0,2.0,85,0.00,,---,0.00,VWS V14.01,2013-06-20 01:43:00,
2013-06-19 21:48:00,66.8,62.2,30.11,ESE,104,0.0,2.0,85,0.00,,---,0.00,VWS V14.01,2013-06-20 01:48:00,
2013-06-19 21:53:00,66.5,62.2,30.11,ESE,103,0.0,2.0,86,0.00,,---,0.00,VWS V14.01,2013-06-20 01:53:00,
2013-06-19 21:58:00,66.3,62.0,30.11,ESE,105,0.0,3.0,86,0.00,,---,0.00,VWS V14.01,2013-06-20 01:58:00,
2013-06-19 22:03:00,66.0,62.0,30.11,ESE,107,0.0,1.0,87,0.00,,---,0.00,VWS V14.01,2013-06-20 02:03:00,
2013-06-19 22:08:00,65.8,61.8,30.12,ESE,106,0.0,1.0,87,0.00,,---,0.00,VWS V14.01,2013-06-20 02:08:00,
2013-06-19 22:13:00,65.5,61.9,30.12,ESE,107,0.0,1.0,88,0.00,,---,0.00,VWS V14.01,2013-06-20 02:13:00,
2013-06-19 22:18:00,65.3,61.7,30.12,ESE,107,0.0,1.0,88,0.00,,---,0.00,VWS V14.01,2013-06-20 02:18:00,
2013-06-19 22:23:00,65.0,61.4,30.12,ESE,107,0.0,1.0,88,0.00,,---,0.00,VWS V14.01,2013-06-20 02:23:00,
2013-06-19 22:28:00,64.7,61.4,30.12,ESE,106,0.0,1.0,89,0.00,,---,0.00,VWS V14.01,2013-06-20 02:28:00,
2013-06-19 22:33:00,64.5,61.2,30.13,ESE,107,0.0,0.0,89,0.00,,---,0.00,VWS V14.01,2013-06-20 02:33:00,
2013-06-19 22:38:00,64.3,61.0,30.13,ESE,107,0.0,0.0,89,0.00,,---,0.00,VWS V14.01,2013-06-20 02:38:00,
2013-06-19 22:43:00,64.1,61.1,30.13,ESE,107,0.0,0.0,90,0.00,,---,0.00,VWS V14.01,2013-06-20 02:43:00,
2013-06-19 22:48:00,63.9,60.9,30.13,ESE,107,0.0,0.0,90,0.00,,---,0.00,VWS V14.01,2013-06-20 02:48:00,
2013-06-19 22:53:00,63.8,60.8,30.14,ESE,106,0.0,0.0,90,0.00,,---,0.00,VWS V14.01,2013-06-20 02:53:00,
2013-06-19 22:58:00,63.7,60.7,30.14,ESE,106,0.0,1.0,90,0.00,,---,0.00,VWS V14.01,2013-06-20 02:58:00,
2013-06-19 23:03:00,63.6,60.9,30.14,ESE,107,0.0,0.0,91,0.00,,---,0.00,VWS V14.01,2013-06-20 03:03:00,
2013-06-19 23:08:00,63.5,60.8,30.14,ESE,107,0.0,0.0,91,0.00,,---,0.00,VWS V14.01,2013-06-20 03:08:00,
2013-06-19 23:13:00,63.5,60.8,30.14,ESE,107,0.0,1.0,91,0.00,,---,0.00,VWS V14.01,2013-06-20 03:13:00,
2013-06-19 23:18:00,63.4,60.7,30.14,ESE,107,0.0,1.0,91,0.00,,---,0.00,VWS V14.01,2013-06-20 03:18:00,
2013-06-19 23:23:00,63.4,60.7,30.15,ESE,107,0.0,1.0,91,0.00,,---,0.00,VWS V14.01,2013-06-20 03:23:00,
2013-06-19 23:28:00,63.3,60.6,30.15,ESE,107,0.0,1.0,91,0.00,,---,0.00,VWS V14.01,2013-06-20 03:28:00,
2013-06-19 23:33:00,63.2,60.5,30.15,ESE,107,0.0,0.0,91,0.00,,---,0.00,VWS V14.01,2013-06-20 03:33:00,
2013-06-19 23:38:00,63.1,60.4,30.15,ESE,107,0.0,1.0,91,0.00,,---,0.00,VWS V14.01,2013-06-20 03:38:00,
2013-06-19 23:43:00,63.1,60.4,30.15,ESE,106,0.0,1.0,91,0.00,,---,0.00,VWS V14.01,2013-06-20 03:43:00,
2013-06-19 23:48:00,63.3,60.6,30.15,ESE,106,1.0,1.0,91,0.00,,---,0.00,VWS V14.01,2013-06-20 03:48:00,
2013-06-19 23:53:00,63.4,60.7,30.15,ESE,107,0.0,2.0,91,0.00,,---,0.00,VWS V14.01,2013-06-20 03:53:00,
2013-06-19 23:58:00,63.5,60.8,30.15,ESE,109,1.0,2.0,91,0.00,,---,0.00,VWS V14.01,2013-06-20 03:58:00,